Preview of NWS' New Version of Forecast
This preview is not operational and should not be used for support decisions.

Regional Weather Roundup (RWR)

Issued by Gray - Portland, ME (GYX)

                            
000
ASUS41 KGYX 160410
RWRGYX
WEATHER ROUNDUP FOR MAINE AND NEW HAMPSHIRE
NATIONAL WEATHER SERVICE GRAY ME
1200 AM EDT TUE OCT 16 2018

MEZ002-005-006-010-012-015-018-020-021-024-026-027-029-160500-
MAINE
  
CITY           SKY/WX    TMP DP  RH WIND       PRES   REMARKS
PORTLAND       CLOUDY    62  61  96 SW14G20   29.62F                  
SANFORD        LGT RAIN  60  57  89 W15G23    29.67R                  
BAR HARBOR     LGT RAIN  61  60  97 SW15      29.58F                  
WISCASSET      CLOUDY    61  60  97 SW12G18   29.61F                  
ROCKLAND       CLOUDY    62  61  96 SW17G31   29.59F                  
FRYEBURG       LGT RAIN  55  53  93 CALM      29.65R                  
LEWISTONAUBURN LGT RAIN  59  58  96 W9G16     29.62R                  
AUGUSTA        LGT RAIN  59  58  96 SW10G20   29.59F                  
BANGOR         CLOUDY    61  59  93 S7        29.56F                  
GREENVILLE       N/A     49  49 100 VRB5      29.53F                  
MILLINOCKET    CLOUDY    55  52  89 VRB5      29.53F                  
HOULTON        CLOUDY    56  56 100 SW8       29.49F                  
PRESQUE ISLE   CLOUDY    55  53  93 SW12      29.47S                  
FRENCHVILLE    CLOUDY    53  49  86 S12       29.40F FOG              
CARIBOU        CLOUDY    55  52  89 SW12      29.44F                  
$$

NHZ002-005-008-009-011-012-014-160500-
NEW HAMPSHIRE
  
CITY           SKY/WX    TMP DP  RH WIND       PRES   REMARKS
PORTSMOUTH     RAIN      63  61  94 NW26G38   29.65R                  
ROCHESTER      LGT RAIN  59  57  93 W13G21    29.68R FOG              
NASHUA         LGT RAIN  59  55  87 W14G28    29.74R                  
MANCHESTER     LGT RAIN  59  55  87 W10G17    29.72R                  
CONCORD        LGT RAIN  56  52  86 W12G24    29.72R                  
LACONIA        CLOUDY    54  52  93 SW6       29.71S                  
PLYMOUTH       CLOUDY    52  51  95 W13G22    29.71R                  
BERLIN         LGT RAIN  53  48  83 NW8       29.65F                  
WHITEFIELD     LGT RAIN  53  49  86 SW10      29.68F                  
JAFFREY        LGT RAIN  54  53  97 W9        29.78R FOG              
KEENE          LGT RAIN  55  51  86 VRB6      29.80R                  
LEBANON        CLOUDY    57  46  66 W10G21    29.75R                  
MT WASHINGTON  SHOWER    36  36 100 W51G72      N/A  VSB 0            
$$

VTZ005-007-008-160500-
VERMONT
  
CITY           SKY/WX    TMP DP  RH WIND       PRES   REMARKS
ST JOHNSBURY     N/A     51  48  89 MISG      29.70R                  
MONTPELIER     LGT RAIN  50  45  83 W23G32    29.78R                  
BURLINGTON     CLOUDY    52  32  46 W9G24     29.81R                  
$$

MAZ007-012-024-CTZ003-RIZ002-NYZ038-NYZ072-160500-
SOUTHERN NEW ENGLAND AND NY
  
CITY           SKY/WX    TMP DP  RH WIND       PRES   REMARKS
BOSTON         LGT RAIN  69  62  78 SW20G35   29.69F                  
WORCESTER      RAIN      55  53  93 W21G35    29.77R                  
NANTUCKET      CLOUDY    66  65  96 SW22G31   29.81F FOG              
PROVIDENCE     CLOUDY    68  64  87 SW20G31   29.76F                  
HARTFORD       LGT RAIN  64  61  90 NW9       29.80R                  
ALBANY         CLOUDY    54  43  66 W23G31    29.92R                  
NEW YORK CITY  RAIN      66  60  81 NW23G37   29.88R                  
$$

ANZ081-ANZ082-ANZ150-NHZ014-MEZ023>029-160500-
COASTAL MARINE OBSERVATIONS
  
STATION/POSITION TIME  TEMP    WIND        PRES    WAVE
                       AIR SEA DIR/SP/G            HT/PER
                 (UTC) (F)     (DEG/KT/KT) (MB)    (FT/S)
MOUNT DESERT ROC 0400   59     200/ 32/ 36 1002.0F
MATINICUS ROCK   0300   59     210/ 29/ 33 1003.0F
ISLE OF SHOALS   0300   64     220/ 24/ 25 1003.9F
JEFFREYS LEDGE   0336      57                N/A     5/ 6
$$

.............KEY..............
   WCI - WIND CHILL
   TC  - TEMPERATURE IN CELSIUS
   VSB - VISIBILITY IN MILES
   HX  - HEAT INDEX
   FAIR- INDICATES FEW OR NO CLOUDS BELOW 12,000 FT, WITH NO 
         SIGNIFICANT WEATHER AND/OR OBSTRUCTIONS TO VISIBILITY.